Regional Weather Roundup
Issued by NWS

Home | Current Version | Previous Version | Text Only | Print | Product List | Glossary Off
Versions: 1 2 3 4 5 6 7 8 9 10 11 12 13 14 15 16 17 18 19 20 21 22 23 24 25 26 27 28 29 30 31 32 33 34 35 36 37 38 39 40 41 42 43 44 45 46 47 48 49 50

000
ASUS43 KDMX 252307
RWRIA

WEATHER ROUNDUP FOR IOWA
NATIONAL WEATHER SERVICE DES MOINES IA
500 PM CST TUE NOV 25 2014

NOTE: "FAIR" INDICATES FEW OR NO CLOUDS BELOW 12,000 FEET WITH NO
SIGNIFICANT WEATHER AND/OR OBSTRUCTIONS TO VISIBILITY.

* - THESE STATIONS ARE NOT NWS STATIONS...THUS NOT UNDER NWS
QUALITY CONTROL.  THEY ALSO DO NOT REPORT WEATHER SUCH
AS PRECIPITATION OR FOG.

IAZ001>003-012>014-020>022-031>034-043>046-260000-
   NORTHWEST IOWA

CITY           SKY/WX    TMP DP  RH WIND       PRES   REMARKS
CARROLL *      CLEAR     30  19  64 S8        29.99S WCI  23
CHEROKEE *     MOCLDY    34  19  55 SE7       29.94F WCI  28
DENISON *      CLEAR     34  18  51 S9        29.95S WCI  26
LE MARS *      CLEAR     36  23  60 SE10      29.92S WCI  28
ORANGE CITY *  CLEAR     36  21  55 SE8       29.91S WCI  29
SHELDON *      CLEAR     32  21  64 SE9       29.91S WCI  24
SIOUX CITY     CLOUDY    39  25  57 SE10      29.91F WCI  32
SPENCER        MOCLDY    31  17  56 SE12      29.95F WCI  22
STORM LAKE *   CLEAR     32  18  55 S12       29.95F WCI  23
$$

IAZ055>058-069>071-079>083-090>094-260000-
   SOUTHWEST IOWA

CITY           SKY/WX    TMP DP  RH WIND       PRES   REMARKS
ATLANTIC *     CLEAR     34  19  55 S8        29.99F WCI  27
AUDUBON *      CLEAR     32  16  51 S3        29.99F
CLARINDA *     CLEAR     36  18  48 SE6       30.04F WCI  31
COUNCIL BLFS * CLEAR     37  23  56 S10       29.96S WCI  30
CRESTON *      CLEAR     30  16  55 S7        30.04S WCI  23
HARLAN  *      CLEAR     36  21  55 S8        30.01F WCI  29
LAMONI         CLEAR     33  16  49 S6        30.06S WCI  28
RED OAK *      CLEAR     37  19  48 SE8       30.00F WCI  31
SHENANDOAH *   CLEAR     37  23  56 SE12      30.01F WCI  30
$$

IAZ047>049-059>061-072>074-084-260000-
   CENTRAL IOWA

CITY           SKY/WX    TMP DP  RH WIND       PRES   REMARKS
AMES           CLEAR     28  13  53 SE6       30.05S WCI  22
ANKENY *       CLEAR     30  12  47 SE5       30.06S WCI  25
CHARITON *     CLEAR     32  12  43 S6        30.07S WCI  26
DES MOINES     PTCLDY    33   9  36 S7        30.06S WCI  27
GRINNELL*      CLEAR     28  19  69 SE3       30.08F
KNOXVILLE *    CLEAR     32  12  43 SE5       30.06F WCI  27
MARSHALLTOWN   CLEAR     24  18  77 E7        30.06F WCI  16
PELLA *        CLEAR     32  14  47 SE3       30.09F
PERRY *          N/A     30  21  69 SE7       30.03S WCI  23
$$

IAZ004>006-015-016-023>025-035-036-260000-
   NORTH CENTRAL IOWA

CITY           SKY/WX    TMP DP  RH WIND       PRES   REMARKS
ALGONA *       CLEAR     30  14  51 SE9       29.99F WCI  22
CLARION *      CLEAR     28  16  59 S7        30.02S WCI  21
ESTHERVILLE    PTCLDY    28  13  53 SE10      29.96S WCI  19
FORT DODGE *   PTCLDY    30  10  43 SE7       30.02S WCI  23
MASON CITY     CLOUDY    23  15  71 SE8       30.04F WCI  14
FOREST CITY *  CLEAR     27  19  74 SE5       30.01S WCI  21
IOWA FALLS *     N/A     25  18  74 SE7       30.05S WCI  17
$$

IAZ007>011-017>019-026>030-037>042-050>054-066-260000-
   NORTHEAST IOWA

CITY           SKY/WX    TMP DP  RH WIND       PRES   REMARKS
CEDAR RAPIDS   CLEAR     26  20  77 CALM      30.11R
CHARLES CITY * CLEAR     19  12  73 SE7       30.06S WCI  10
CLINTON *      CLEAR     19  14  79 SW3       30.16F
DECORAH *      CLEAR     19  12  73 S5        30.06S WCI  13
DUBUQUE        CLEAR     16  14  92 S5        30.10F WCI   9
MONTICELLO *   CLEAR     21  18  86 CALM      30.12S
OELWEIN *      CLEAR     19  14  79 S5        30.09F WCI  13
WATERLOO       CLEAR     19  14  81 SE5       30.08F WCI  12
$$

IAZ064-065-067-068-078-260000-
   EAST CENTRAL IOWA

CITY           SKY/WX    TMP DP  RH WIND       PRES   REMARKS
DAVENPORT      CLEAR     19  13  77 CALM      30.14F
IOWA CITY      CLEAR     26  19  74 S6        30.14S WCI  19
MT. PLEASANT * CLEAR     27  19  74 CALM      30.14S
MUSCATINE *    CLEAR     27  19  74 CALM      30.15S
QUAD CITIES    CLEAR     24  16  71 S3        30.14F
$$

IAZ062-063-075>077-085>089-095>099-260000-
   SOUTHEAST IOWA

CITY           SKY/WX    TMP DP  RH WIND       PRES   REMARKS
BURLINGTON     CLEAR     28  22  78 CALM      30.13F
FAIRFIELD *    CLEAR     28  21  74 S6        30.12S WCI  22
FORT MADISON * CLEAR     30  25  80 CALM      30.14S
KEOKUK *       CLEAR     32  21  64 CALM      30.13S
OSKALOOSA *      N/A     28  19  69 S6        30.10S WCI  22
CENTERVILLE *  CLEAR     30  16  55 S3        30.10S
OTTUMWA        CLEAR     28  18  66 S5        30.10S WCI  23
WASHINGTON *   CLEAR     27  23  86 SE6       30.12F WCI  20
$$

ABBREVIATIONS USED IN REMARKS
   TC - TEMPERATURES IN CELSIUS
  WCI - WIND CHILL INDEX
   HX - HEAT INDEX
  VSB - VISIBILITY
$$




USA.gov is the U.S. government's official web portal to all federal, state and local government web resources and services.